sat.trackr.live / text

‹ back to catalog

STARLINK-36855

NORAD 68121 · 2026-044W

PAYLOAD ACTIVE UNKNOWN

§ Identity

Operator
Country
US
Launch date
2026-03-08
Launch site
AFWTR
Launch vehicle
Mass (kg)
RCS (m²)

Purposes: comms

External: N2YO · Heavens-Above · Gunter

§ Orbital elements

Epoch: 2026-05-24T19:38:48.239232Z

Period
93.91 min
Inclination
97.2852°
Eccentricity
0.0001944
Mean motion
15.33448311 rev/d
Perigee alt
464.2 km
Apogee alt
466.9 km
Semi-major
6,843.7 km
B*
6.0679e-4
RAAN
105.5093°
Arg perigee
93.7799°
Mean anomaly
266.3666°
Rev number
1,325

§ Raw data

STARLINK-368551 68121U 26044W   26144.81861388  .00019568  00000+0  60679-3 0  99932 68121  97.2852 105.5093 0001944  93.7799 266.3666 15.33448311 13257

JSON: /api/v1/satellites/68121 · /tle

For live sub-satellite position, see the globe view (requires WebGL).

§ Visibility from observer

Set your observer location to see the next 7 days of passes ≥ 10°. The values pass through the URL so the page stays shareable.

No JS? Fill the form by hand. The geolocation button needs JavaScript.